Voltar ao catálogo

STARLINK-30486

AtivoComunicaçõesVLEO
NORAD 58009·PAYLOAD·🇺🇸 United States

Lançado Oct 5, 2023 de Cape Canaveral Space Force Station

Loading…

Próximas Passagens (próximas 24 horas)

TLE

AtualizadoSource: CelesTrak SupGP

Época: Sep 14, 2026, 22:34 UTC

1 58009C 23153U   26257.94076389  .00058502  00000+0  21189-2 0  2573
2 58009  43.0031  78.0568 0001428 265.8867  42.9697 15.27550282    11

Acompanhe STARLINK-30486 em tempo real com AllMySat

Download on the App Store